Location: Grantsboro
(35.1404°N, 76.8424°W)
Time: 21:59:49
(UTC+00:00)

Cosmos 972 Rocket - Pass Details

Date: 18 January 2020
Orbit: 713 x 1151 km, 75.8° (Epoch: 27 February)

Event Time Altitude Azimuth Distance (km) Brightness Sun altitude
Rises 11:29:09 0° 342° (NNW) 3,745 7.2 -9.4°
Reaches altitude 10° 11:31:51 10° 341° (NNW) 2,727 6.5 -8.9°
Maximum altitude 11:38:05 73° 258° (WSW) 932 4.3 -7.7°
Drops below altitude 10° 11:43:34 10° 174° (S) 2,413 7.0 -6.7°
Sets 11:45:50 0° 172° (S) 3,287 7.7 -6.2°
